Погода в Петушках

Россия / Владимирская область     55°55′51″N   39°27′35″E
темп.,
°C
ветер,
м/с
пор.,
м/с
влажн.,
%
обл.,
%
осадки,
мм/ч
давл.,
гПа
погр.,
м
23 сентября, чт
чт2300:00+7св2498100 0.0 1015119
03:00+7всв3897100 0.4 1015270
06:00+7всв3897100 0.4 1014270
09:00+7в3897100 0.7 1014312
12:00+8в2898100 2.9 1013556
15:00+8вюв2698100 3.3 1012427
18:00+8юв249971 0.2 1012154
21:00+7ююв2598100 0.2 1011135
24 сентября, пт
пт2400:00+7ююв2596100 0.0 1010164
03:00+5ююв279762 0.0 1009146
06:00+6ююв3995100 0.0 1007356
09:00+7ююв41091100 0.1 1007623
12:00+8ююв4987100 0.1 1006894
15:00+11ююв51073100 0.5 10041400
18:00+8ююв498194 0.3 1004758
21:00+6юв399068 0.4 1005294
25 сентября, сб
сб2500:00+6юв41186100 0.0 1004431
03:00+7вюв3985100 0.0 1004379
06:00+7вюв2685100 0.0 1005254
09:00+7юв2687100 0.1 1005317
12:00+9ю2381100 0.0 1006437
15:00+11ююз1174100 0.1 1006651
18:00+9ююз1188100 0.1 100710
21:00+8зюз1192100 0.1 100819
26 сентября, вс
вс2600:00+8ююз1193100 0.0 100811
03:00+7з009584 0.0 100811
06:00+6св119695 0.2 100810
09:00+9ссв128396 0.2 1009277
12:00+11ссв2479100 1.2 1010552
15:00+10ссв4680100 1.8 1012860
18:00+8с3794100 0.2 1014299
21:00+9с3894100 1.3 1015340
27 сентября, пн
пн2700:00+7с399754 0.0 1017269
03:00+7с3995100 0.0 1018425
06:00+7с4995100 0.0 1019493
09:00+8ссв4994100 0.0 1021658
12:00+9св4887100 0.1 1022869
15:00+8св4990100 0.3 1024726
18:00+7всв4891100 0.3 10261022
21:00+6всв4991100 0.4 1028710